STARLINK-37219, 68843

Orbit data source: Space-Track

STARLINK-37219, 68843 is a payload satellite owned by SpaceX/Seattle (US) in SSO that was launched on Sun, 26 Apr 2026 UTC via an FALCON 9 launch vehicle from the Air Force Western Test Range (AFWTR). Payload-class satellites include a variety of spacecraft equipped with specific instruments for various scientific and technological missions. These include communications satellites like Starlink; space stations such as the ISS; scientific satellites like the Hubble; Earth observation satellites from companies like Planet Labs, Umbra, and HawkEye 360; GPS; miniature CubeSats for education and research; and military/defense satellites.

Loading next visibility...
Identifier
68843, 2026-094E
Orbit
SSO
Country
Flag of USUS
Related business
Manufacturer
SpaceX/Seattle
Mission
Operational spacecraft
Bus & Motor
STARLINK V2MO, Unknown motor
Mass
575 kg wet, ~530 kg dry
Launch date (UTC)
2026-04-26 (2 months ago)
Launch vehicle
FALCON 9
Launch site
Air Force Western Test Range (AFWTR)
Object type
Payload
Rocket body
Debris
Shape & HBR
Unknown shape, 14.5 m
Radar Cross Section
Large (>1 m²)

Expand to show TLE details & history
Last TLE update: 20 hours ago

TLE from 20 hours ago
0 STARLINK-37219
1 68843U 26094E   26171.03357594  .00110795  00000-0  73412-3 0  9996
2 68843  97.2848 187.2533 0001345  21.6948 338.4374 15.75189102  8606
Epoch: 2026-06-20T00:48Z
TLE epoch observation values (Epoch: 2026-06-20T00:48:20.961Z)
Latitude
-0°
Longitude
-93.08804°
Altitude
346.42 km
Speed
7.701 km/s
True Right ascension
12h 29m 00s
True Declination
0° 00' 00"
Sunlit
Object was in daylight at epoch
Visualization orbit readout
Latitude
Unknown
Longitude
Unknown
Altitude
Unknown
Speed
Unknown
Apparent Right ascension
Unknown
Apparent Declination
Unknown
Sunlit
N/A
Visualization observer readout
Local Sidereal Time
07:15:42
Azimuth
Unknown
Elevation
Unknown
Doppler factor
Unknown
Orbital elements
Apogee altitude
341.884 km
Perigee altitude
340.077 km
Semi-major axis
6,719.118 km
Eccentricity
0.00013
Inclination
97.2848°
RAAN
187.2533°
Arg. of periapsis
21.6948°
True anomaly
338.43173°
Mean anomaly
338.4374°
Eccentric anomaly
338.43457°
Mean motion
3.94071 °/min
Orbital period
91.35 mins
BSTAR
0.00073412
Loading maneuver chart data...
Computing Atmospheric mass density...
Loading historical data...
Loading historical data...
Loading historical data...
Loading historical data...
Loading historical data...
Loading historical data...
Loading historical data...

Documentation

Showing up to 5 results
|